IUS R/B(1), 26882

Orbit data source: Space-Track

IUS R/B(1), 26882 is space debris in HEO originally from a launch on Mon, 06 Aug 2001 UTC launched from the Air Force Eastern Test Range (AFETR). Debris objects in space refer to the collection of defunct objects orbiting the Earth. Examples of debris include non-operational satellites, rocket bodies, and fragments generated from explosions, collisions, or faulty payload assembly.

Loading next visibility...
Identifier
26882, 2001-033C
Orbit
HEO
Country
Flag of USUS
Related business
Manufacturer
PW CSD
Mission
Spacecraft
Bus & Motor
ORBUS 21, ORBUS 21
Mass
1,164 kg wet, 1,164 kg dry
Launch date (UTC)
2001-08-06 (24 years ago)
Launch vehicle
Unknown
Launch site
Air Force Eastern Test Range (AFETR)
Object type
Payload
Rocket body
Debris
Shape & HBR
Cyl, Unknown HBR
Radar Cross Section
8.491 m², Large (>1 m²)

Expand to show TLE details & history
Last TLE update: 6 hours ago

TLE from 6 hours ago
0 IUS R/B(1)
1 26882U 01033C   25245.94830667  .00003930  00000-0  30013-2 0  9998
2 26882  27.8707 121.5546 7085121  83.0632 345.9786  2.49517812 55347
Epoch: 2025-09-02T22:45Z
TLE epoch observation values (Epoch: 2025-09-02T22:45:33.696Z)
Latitude
-0.00003°
Longitude
157.93297°
Altitude
4,129.109 km
Speed
7.649 km/s
True Right ascension
08h 06m 37s
True Declination
0° 00' 00"
Sunlit
Object was in daylight at epoch
Visualization orbit readout
Latitude
Unknown
Longitude
Unknown
Altitude
Unknown
Speed
Unknown
Apparent Right ascension
Unknown
Apparent Declination
Unknown
Sunlit
N/A
Visualization observer readout
Local Sidereal Time
20:44:05
Azimuth
Unknown
Elevation
Unknown
Doppler factor
Unknown
Orbital elements
Apogee altitude
32,858.206 km
Perigee altitude
315.944 km
Semi-major axis
22,965.212 km
Eccentricity
0.70851
Inclination
27.8707°
RAAN
121.5546°
Arg. of periapsis
83.0632°
True anomaly
276.84113°
Mean anomaly
345.9786°
Eccentric anomaly
319.7486°
Mean motion
0.62365 °/min
Orbital period
577.25 mins
BSTAR
0.0030013
Loading maneuver chart data...
Computing Atmospheric mass density...
Loading historical data...
Loading historical data...
Loading historical data...
Loading historical data...
Loading historical data...
Loading historical data...
Loading historical data...
Other satellites on launch #33 in the year 2001 (2001-08-06 UTC)

Documentation

Showing up to 5 results
|